Wind_Speed
18 17 18 19 19 19 18 17 17 18 19 20 20 21 21 23 27 31 28 26 25 25 25 26 26 27 27 27 28 29 30 30 30 31 31 32 32 33 34 34 34 35 35
11 15 19 19 19 20 21 22 21 19 20 22 22 23 22 23 23 23 25 27 27 28 28 29 30 31 32 33 31 32 33 32 32 34 35 32 33 36 39 38 39 38 37
16 16 15 16 18 20 21 23 23 24 25 22 22 22 22 24 25 28 29 27 24 24 25 25 26 32 34 33 33 36 36 35 32 34 33 15 20 28 31 31 33 39 40
17 16 14 13 14 15 17 21 24 27 30 30 29 29 29 28 28 25 27 29 30 28 22 19 19 18 20 26 30 33 35 35 34 35 38 39 40 25 20 23 25 28 37
18 15 12 10 10 9 11 13 13 14 18 25 29 30 30 29 28 27 25 22 20 22 23 20 19 20 21 22 21 24 28 30 32 34 33 35 36 43 42 35 32 32 31
18 14 10 10 10 9 8 8 9 9 9 10 11 13 15 19 24 28 30 30 29 26 21 22 22 21 21 19 18 20 22 23 26 28 30 31 30 30 34 42 47 43 39
21 16 14 13 10 8 8 8 9 10 11 11 11 11 12 12 13 14 16 17 21 21 20 21 22 22 22 24 21 20 24 22 25 27 29 31 30 30 32 37 35 36 36
20 17 14 11 10 10 9 10 11 13 14 14 14 14 15 15 15 15 14 14 15 18 21 21 20 20 22 22 21 22 24 22 20 22 25 26 25 25 28 29 29 33 34
20 17 14 11 10 10 11 10 11 12 13 14 14 14 14 15 16 17 17 17 17 18 18 19 21 22 24 25 24 25 26 25 21 22 24 26 26 26 24 26 27 32 26
19 15 12 10 9 10 9 9 9 9 10 11 11 11 12 12 13 13 14 14 15 16 17 18 19 20 20 21 22 23 25 27 27 26 25 22 21 21 23 24 24 25 29
18 15 12 10 9 8 8 8 8 8 8 8 8 9 9 10 11 11 12 13 14 15 16 15 15 16 16 17 18 19 19 19 19 18 16 15 16 19 19 20 21 22 22
18 15 12 10 9 8 8 8 8 8 8 8 9 9 10 11 12 12 12 12 13 14 14 14 15 15 16 17 17 16 15 14 12 13 13 13 15 17 18 16 16 17 18
17 15 14 12 10 9 9 9 8 8 8 8 8 9 9 9 10 9 9 10 11 10 9 9 10 10 10 9 10 10 8 6 9 9 10 11 12 14 14 14 14 12 11
19 16 15 14 12 10 10 10 10 9 9 8 9 9 9 10 10 9 8 6 4 2 3 3 3 3 4 4 4 4 3 2 5 5 5 6 6 8 10 8 7 6 7
20 18 17 16 15 13 11 11 11 10 9 9 9 10 10 10 8 8 6 4 2 1 3 4 5 5 6 8 9 8 5 4 4 4 3 3 5 5 5 5 5 6 8
22 20 18 18 18 16 13 13 12 10 10 9 9 9 9 7 5 3 3 4 4 5 7 8 8 9 12 11 10 10 8 7 6 5 4 3 3 4 5 6 7 8 7
23 21 20 18 18 17 15 13 12 12 11 10 10 9 7 5 4 4 6 7 7 7 7 10 10 10 10 9 9 8 6 5 3 3 4 5 6 7 7 7 6 6 6
19 19 17 17 17 16 15 14 13 12 12 11 10 8 6 6 7 8 8 9 9 9 10 10 9 7 7 8 7 6 5 4 4 3 4 5 6 8 8 8 8 9 9
13 13 14 16 17 16 15 14 13 12 11 10 9 8 8 8 10 11 11 10 10 8 8 8 7 5 5 5 4 5 5 5 5 6 6 6 8 9 10 9 10 9 8
12 12 13 15 16 15 15 13 12 11 10 10 10 10 10 11 13 13 11 10 8 7 6 4 3 4 5 6 7 7 7 7 6 6 6 6 7 8 9 9 8 7 7
12 12 13 14 14 14 14 13 11 10 9 10 12 12 13 14 14 12 10 8 6 5 3 2 3 4 5 6 7 8 7 7 7 7 7 7 7 7 8 7 5 4 5
13 12 12 14 14 15 15 13 12 11 12 14 14 16 16 14 12 11 9 7 4 2 0 1 3 4 4 6 8 8 7 7 8 8 9 8 7 7 6 4 3 4 5
13 12 11 11 13 13 13 13 13 13 15 16 17 16 15 14 12 10 8 6 4 3 2 3 4 4 5 6 8 9 10 10 9 9 8 8 6 4 3 3 4 4 5
14 12 12 10 12 13 13 13 13 16 17 18 18 17 15 14 12 11 9 7 6 4 4 4 5 5 5 6 8 9 9 10 10 9 9 7 6 5 5 5 6 7 8
17 14 12 11 11 13 14 15 16 19 20 18 17 16 15 14 12 11 9 8 7 7 6 6 6 6 6 7 8 9 8 8 9 9 8 7 7 7 7 8 9 10 11
18 17 16 15 14 14 14 16 19 20 19 19 18 17 15 14 13 12 11 10 9 8 7 7 6 6 7 8 9 9 9 9 9 9 9 9 9 9 10 10 11 12 14
Wind_Direction
246 245 210 212 219 224 226 222 223 229 230 229 231 235 237 241 244 245 250 253 261 261 261 262 262 265 266 270 272 268 266 264 265 258 260 263 263 264 267 270 267 265 266
216 210 207 214 224 230 232 234 235 235 237 241 240 241 246 250 253 252 251 254 257 260 263 265 267 267 266 268 271 271 269 268 265 262 258 256 262 264 265 268 267 264 265
202 199 207 218 224 230 236 239 242 244 245 240 241 244 245 247 251 255 258 261 262 261 263 268 269 262 263 268 269 270 269 268 271 272 265 263 252 264 270 272 270 263 261
189 200 211 221 229 238 246 251 253 251 247 247 248 248 251 257 262 264 263 261 259 259 262 267 267 269 269 271 270 267 268 269 269 269 268 267 266 264 279 271 278 268 262
196 193 197 220 243 237 235 238 238 242 246 248 250 253 253 253 255 260 262 261 258 255 252 255 259 268 276 274 274 275 272 271 273 275 276 278 273 263 260 273 270 270 273
175 179 187 198 204 205 212 218 228 233 236 239 245 251 254 255 256 258 261 262 261 259 256 255 257 260 262 271 273 272 276 275 276 277 280 278 274 276 272 270 271 270 270
167 175 189 197 206 217 227 235 241 251 257 258 258 259 260 261 262 261 259 262 258 257 255 255 259 262 267 274 267 263 266 270 273 273 276 281 281 283 285 279 272 274 273
171 178 186 207 228 241 251 256 256 255 259 263 266 265 266 268 271 271 272 269 267 261 258 260 263 265 269 272 274 270 272 277 264 260 261 270 280 286 285 287 286 279 273
171 183 198 215 234 254 264 264 261 260 265 270 272 273 272 273 273 273 272 270 268 267 267 267 265 263 262 266 269 270 269 279 275 271 270 270 275 275 282 286 282 273 272
174 189 204 221 241 257 263 268 268 267 269 272 272 271 270 270 269 268 267 267 267 267 267 267 267 267 268 270 272 272 274 276 276 273 273 278 275 276 281 283 276 277 266
187 200 209 224 243 252 259 263 263 264 263 264 267 273 278 279 279 278 276 272 270 269 270 271 272 273 275 276 276 276 278 279 280 278 281 286 287 280 278 279 277 274 271
199 207 219 233 242 252 260 260 256 253 253 257 266 274 280 283 281 277 277 278 277 275 275 277 277 276 277 279 281 283 289 302 301 290 284 282 284 282 281 283 285 283 281
198 208 220 230 238 252 263 259 256 256 259 266 271 275 282 285 283 281 286 290 283 278 278 278 282 283 281 287 295 291 289 312 303 295 291 289 284 281 284 293 288 281 270
207 215 220 228 238 253 262 256 257 258 261 264 268 274 281 284 278 275 278 294 302 286 283 298 317 347 342 319 327 5 319 311 310 309 305 289 286 293 298 289 282 273 266
211 220 227 230 234 242 249 249 250 255 260 264 270 274 284 287 281 271 253 252 220 132 74 74 86 92 87 79 77 77 71 62 36 29 10 8 6 340 318 306 291 282 272
217 221 227 231 238 242 245 249 251 256 261 263 267 275 285 281 270 237 191 162 147 115 111 106 99 93 84 80 85 77 66 58 50 48 31 3 340 308 304 309 298 289 288
219 223 233 239 239 239 245 251 250 253 256 258 263 273 271 245 207 177 164 152 131 119 113 102 96 90 91 83 71 68 57 44 20 7 352 332 319 309 298 293 306 314 312
228 230 232 234 232 232 235 242 242 247 255 256 255 257 231 206 178 158 153 141 133 124 111 99 87 83 81 66 53 39 31 18 359 344 332 313 307 306 309 309 305 301 296
232 239 241 237 231 231 236 235 240 247 249 244 239 220 196 179 164 156 145 136 130 121 109 103 95 71 50 43 17 3 356 347 336 332 326 317 311 304 306 304 296 291 290
231 238 230 227 229 231 230 231 244 252 242 230 210 190 178 166 154 148 143 137 130 116 113 97 65 37 21 11 2 0 354 350 341 340 332 324 317 312 312 314 306 294 286
223 222 224 228 230 231 232 237 245 250 229 202 188 180 167 158 155 157 152 146 140 131 124 72 29 14 1 358 5 6 2 355 351 346 340 334 326 318 317 320 320 309 306
210 216 221 224 229 229 232 235 241 248 209 191 185 177 168 163 167 164 163 162 158 165 241 339 349 342 347 357 359 2 4 3 354 349 346 341 330 324 321 321 317 316 325
217 218 223 225 220 222 231 241 241 215 195 187 180 173 172 175 177 180 182 189 205 222 258 293 307 318 332 339 346 352 355 351 346 338 333 331 321 311 294 274 283 292 299
229 231 229 234 228 228 236 230 211 196 189 182 179 181 185 188 193 196 202 214 227 243 261 281 293 308 318 327 337 341 341 338 336 334 328 320 313 304 292 285 290 295 296
234 233 236 237 234 233 230 207 195 189 184 185 189 192 195 201 206 212 220 229 237 247 261 276 289 304 315 320 322 322 325 326 326 322 316 303 292 282 279 281 284 287 289
235 232 233 230 229 231 225 208 200 196 191 196 199 201 207 212 215 221 228 236 240 247 262 271 286 301 312 312 309 308 315 315 316 313 305 297 287 281 279 281 283 287 290
Height
1516 1518 1521 1523 1525 1527 1529 1530 1532 1534 1535 1536 1537 1539 1539 1541 1542 1543 1544 1545 1545 1546 1546 1546 1547 1547 1547 1547 1548 1548 1548 1548 1548 1548 1547 1547 1547 1547 1546 1546 1545 1545 1545
1513 1515 1517 1519 1521 1524 1526 1528 1529 1530 1531 1532 1532 1533 1535 1536 1537 1538 1539 1540 1540 1541 1541 1542 1542 1542 1542 1542 1543 1543 1542 1543 1543 1542 1542 1540 1541 1541 1540 1539 1538 1539 1540
1510 1512 1515 1517 1519 1520 1522 1523 1525 1526 1526 1527 1528 1528 1529 1530 1531 1532 1533 1534 1534 1536 1536 1536 1536 1536 1536 1535 1536 1537 1536 1537 1538 1537 1539 1537 1533 1533 1533 1531 1531 1531 1532
1507 1509 1512 1514 1516 1517 1518 1519 1519 1519 1520 1521 1522 1523 1524 1524 1524 1524 1526 1527 1528 1529 1530 1530 1530 1530 1530 1529 1529 1529 1530 1531 1531 1531 1531 1530 1528 1529 1526 1527 1526 1526 1526
1504 1507 1509 1511 1513 1513 1514 1515 1515 1515 1515 1515 1516 1517 1518 1519 1519 1519 1520 1521 1522 1523 1523 1523 1524 1525 1525 1524 1523 1523 1523 1523 1524 1523 1524 1525 1523 1522 1521 1518 1519 1520 1521
1502 1505 1507 1509 1510 1511 1512 1512 1512 1513 1513 1512 1513 1513 1513 1513 1514 1514 1514 1515 1515 1516 1517 1517 1518 1519 1519 1519 1518 1519 1518 1518 1517 1518 1518 1517 1517 1516 1514 1514 1511 1512 1513
1500 1502 1505 1506 1508 1509 1510 1510 1511 1511 1511 1511 1511 1511 1510 1510 1510 1511 1510 1510 1510 1511 1511 1512 1513 1513 1513 1513 1513 1513 1513 1512 1512 1512 1511 1510 1511 1511 1510 1509 1505 1505 1506
1497 1500 1503 1505 1506 1507 1507 1507 1508 1508 1508 1508 1508 1508 1508 1507 1507 1507 1506 1506 1506 1506 1507 1507 1508 1508 1508 1508 1507 1507 1507 1507 1506 1505 1505 1504 1504 1505 1505 1503 1503 1499 1500
1495 1498 1501 1503 1504 1505 1504 1504 1504 1504 1504 1504 1504 1505 1504 1504 1503 1503 1502 1502 1502 1502 1502 1502 1502 1503 1502 1502 1501 1501 1500 1500 1499 1500 1499 1498 1497 1499 1497 1498 1497 1495 1495
1495 1497 1499 1501 1502 1502 1502 1502 1501 1501 1501 1501 1501 1501 1501 1500 1500 1499 1499 1498 1498 1497 1497 1497 1497 1496 1496 1496 1496 1496 1494 1493 1493 1493 1492 1491 1491 1492 1492 1492 1491 1490 1489
1493 1495 1497 1498 1499 1500 1500 1500 1500 1499 1499 1499 1499 1498 1498 1497 1497 1496 1495 1495 1494 1494 1493 1492 1492 1491 1491 1491 1491 1490 1489 1488 1487 1487 1486 1487 1487 1487 1487 1486 1485 1486 1485
1491 1493 1495 1496 1496 1497 1498 1497 1497 1497 1497 1497 1497 1496 1496 1495 1494 1493 1492 1491 1490 1490 1489 1488 1488 1486 1486 1486 1486 1485 1484 1483 1483 1483 1483 1483 1484 1484 1483 1483 1482 1482 1481
1488 1490 1492 1493 1494 1494 1495 1495 1494 1494 1495 1495 1495 1494 1494 1492 1492 1491 1489 1487 1486 1486 1486 1485 1484 1483 1483 1482 1482 1482 1481 1481 1481 1481 1480 1480 1481 1481 1480 1480 1480 1479 1477
1485 1486 1488 1490 1491 1491 1491 1491 1492 1492 1492 1492 1493 1492 1491 1490 1489 1488 1487 1487 1485 1485 1484 1483 1482 1481 1481 1480 1480 1478 1479 1478 1479 1477 1477 1477 1478 1478 1478 1478 1478 1477 1477
1482 1483 1485 1486 1488 1488 1488 1488 1489 1490 1490 1490 1490 1490 1489 1488 1487 1486 1486 1486 1485 1484 1482 1482 1481 1482 1482 1480 1479 1478 1479 1478 1478 1477 1477 1477 1477 1478 1478 1478 1477 1477 1476
1478 1480 1482 1484 1484 1485 1485 1486 1487 1487 1488 1487 1487 1487 1487 1486 1485 1485 1484 1485 1484 1483 1483 1482 1483 1482 1481 1481 1480 1479 1479 1478 1479 1478 1477 1477 1477 1478 1477 1477 1477 1477 1475
1475 1477 1478 1480 1481 1482 1483 1483 1484 1485 1485 1485 1485 1485 1485 1484 1484 1483 1485 1485 1484 1484 1484 1483 1484 1484 1484 1483 1482 1481 1481 1480 1480 1479 1477 1477 1477 1478 1477 1477 1476 1475 1474
1472 1473 1475 1476 1478 1479 1480 1481 1481 1481 1483 1482 1483 1483 1483 1483 1483 1483 1485 1485 1486 1485 1485 1485 1486 1486 1485 1484 1483 1483 1482 1481 1480 1479 1477 1477 1476 1476 1476 1475 1474 1474 1473
1469 1471 1472 1474 1475 1476 1478 1478 1478 1479 1479 1480 1480 1481 1482 1482 1482 1484 1485 1486 1487 1487 1486 1487 1487 1487 1486 1485 1484 1483 1482 1480 1479 1478 1476 1476 1475 1474 1473 1473 1472 1471 1471
1467 1468 1469 1471 1472 1473 1474 1475 1475 1475 1475 1477 1478 1479 1481 1482 1483 1485 1486 1487 1488 1488 1488 1488 1488 1487 1486 1485 1484 1482 1481 1480 1479 1477 1476 1475 1474 1473 1472 1471 1469 1468 1468
1464 1465 1467 1468 1469 1470 1471 1471 1472 1472 1473 1475 1477 1479 1481 1482 1484 1485 1487 1488 1489 1489 1489 1488 1487 1487 1486 1485 1484 1482 1480 1479 1478 1476 1475 1473 1472 1471 1470 1468 1467 1467 1466
1461 1463 1464 1465 1466 1467 1468 1468 1469 1470 1472 1474 1476 1478 1480 1482 1484 1486 1487 1488 1488 1489 1489 1488 1487 1487 1486 1485 1483 1481 1480 1479 1477 1475 1474 1472 1471 1469 1468 1467 1467 1466 1465
1459 1460 1462 1462 1462 1463 1465 1466 1467 1468 1470 1473 1475 1478 1480 1483 1484 1486 1486 1487 1488 1488 1488 1487 1487 1486 1485 1484 1483 1481 1479 1477 1476 1474 1473 1471 1470 1469 1468 1467 1466 1466 1465
1456 1458 1458 1458 1459 1461 1462 1463 1464 1467 1470 1473 1475 1478 1480 1482 1483 1484 1485 1486 1487 1487 1486 1486 1485 1484 1483 1483 1481 1480 1478 1476 1474 1472 1471 1470 1469 1468 1467 1466 1465 1464 1463
1453 1454 1455 1456 1457 1458 1460 1461 1463 1466 1469 1472 1474 1477 1479 1481 1482 1484 1484 1485 1485 1485 1485 1484 1484 1482 1481 1480 1479 1478 1476 1474 1472 1471 1470 1469 1468 1467 1466 1464 1463 1462 1460
1450 1451 1453 1454 1454 1456 1457 1459 1461 1464 1466 1469 1472 1475 1477 1479 1480 1481 1483 1483 1483 1483 1483 1482 1481 1480 1479 1478 1477 1476 1474 1472 1470 1469 1468 1466 1465 1464 1463 1461 1460 1459 1457